Year,Month,Day,Hour,Minute,Value (Times are PST for temperature in C)
2011,08,17,00,00,10.60
2011,08,17,00,01,10.60
2011,08,17,00,02,10.60
2011,08,17,00,03,10.60
2011,08,17,00,04,10.60
2011,08,17,00,05,10.60
2011,08,17,00,06,10.60
2011,08,17,00,07,10.60
2011,08,17,00,08,10.60
2011,08,17,00,09,10.50
2011,08,17,00,10,10.50
2011,08,17,00,11,10.50
2011,08,17,00,12,10.50
2011,08,17,00,17,10.40
2011,08,17,00,18,10.40
2011,08,17,00,19,10.40
2011,08,17,00,20,10.40
2011,08,17,00,21,10.40
2011,08,17,00,22,10.40
2011,08,17,00,23,10.40
2011,08,17,00,24,10.40
2011,08,17,00,25,10.40
2011,08,17,00,26,10.40
2011,08,17,00,27,10.40
2011,08,17,00,28,10.40
2011,08,17,00,29,10.40
2011,08,17,00,30,10.40
2011,08,17,00,31,10.40
2011,08,17,00,32,10.30
2011,08,17,00,33,10.30
2011,08,17,00,34,10.30
2011,08,17,00,35,10.30
2011,08,17,00,36,10.30
2011,08,17,00,37,10.30
2011,08,17,00,38,10.30
2011,08,17,00,39,10.20
2011,08,17,00,40,10.20
2011,08,17,00,41,10.20
2011,08,17,00,42,10.20
2011,08,17,00,43,10.20
2011,08,17,00,44,10.20
2011,08,17,00,45,10.10
2011,08,17,00,46,10.10
2011,08,17,00,47,10.10
2011,08,17,00,48,10.10
2011,08,17,00,49,10.10
2011,08,17,00,50,10.00
2011,08,17,00,51,10.00
2011,08,17,00,52,10.00
2011,08,17,00,53,10.00
2011,08,17,00,54,9.90
2011,08,17,00,55,9.90
2011,08,17,00,56,9.90
2011,08,17,00,57,9.90
2011,08,17,00,58,9.90
2011,08,17,00,59,9.90
2011,08,17,01,00,9.80
2011,08,17,01,01,9.80
2011,08,17,01,02,9.80
2011,08,17,01,03,9.80
2011,08,17,01,04,9.70
2011,08,17,01,05,9.70
2011,08,17,01,06,9.70
2011,08,17,01,07,9.70
2011,08,17,01,08,9.60
2011,08,17,01,09,9.60
2011,08,17,01,10,9.60
2011,08,17,01,11,9.60
2011,08,17,01,12,9.50
2011,08,17,01,13,9.50
2011,08,17,01,14,9.40
2011,08,17,01,15,9.40
2011,08,17,01,16,9.40
2011,08,17,01,17,9.30
2011,08,17,01,18,9.30
2011,08,17,01,19,9.30
2011,08,17,01,20,9.30
2011,08,17,01,21,9.20
2011,08,17,01,22,9.20
2011,08,17,01,23,9.20
2011,08,17,01,24,9.20
2011,08,17,01,25,9.10
2011,08,17,01,26,9.10
2011,08,17,01,27,9.10
2011,08,17,01,28,9.10
2011,08,17,01,29,9.00
2011,08,17,01,30,9.00
2011,08,17,01,31,9.00
2011,08,17,01,32,8.90
2011,08,17,01,33,8.90
2011,08,17,01,34,8.90
2011,08,17,01,35,8.90
2011,08,17,01,36,8.80
2011,08,17,01,37,8.80
2011,08,17,01,38,8.80
2011,08,17,01,39,8.80
2011,08,17,01,40,8.70
2011,08,17,01,41,8.70
2011,08,17,01,42,8.70
2011,08,17,01,43,8.70
2011,08,17,01,44,8.70
2011,08,17,01,45,8.70
2011,08,17,01,46,8.60
2011,08,17,01,47,8.60
2011,08,17,01,48,8.60
2011,08,17,01,49,8.60
2011,08,17,01,50,8.60
2011,08,17,01,51,8.50
2011,08,17,01,52,8.50
2011,08,17,01,53,8.50
2011,08,17,01,54,8.40
2011,08,17,01,55,8.40
2011,08,17,01,56,8.40
2011,08,17,01,57,8.40
2011,08,17,01,58,8.40
2011,08,17,01,59,8.40
2011,08,17,02,00,8.30
2011,08,17,02,01,8.30
2011,08,17,02,02,8.30
2011,08,17,02,03,8.30
2011,08,17,02,04,8.30
2011,08,17,02,05,8.30
2011,08,17,02,06,8.30
2011,08,17,02,07,8.30
2011,08,17,02,08,8.30
2011,08,17,02,09,8.30
2011,08,17,02,10,8.20
2011,08,17,02,11,8.20
2011,08,17,02,12,8.20
2011,08,17,02,13,8.20
2011,08,17,02,14,8.20
2011,08,17,02,15,8.20
2011,08,17,02,16,8.20
2011,08,17,02,17,8.10
2011,08,17,02,18,8.10
2011,08,17,02,19,8.10
2011,08,17,02,20,8.10
2011,08,17,02,21,8.10
2011,08,17,02,22,8.10
2011,08,17,02,23,8.10
2011,08,17,02,24,8.10
2011,08,17,02,25,8.10
2011,08,17,02,26,8.10
2011,08,17,02,27,8.10
2011,08,17,02,28,8.10
2011,08,17,02,29,8.10
2011,08,17,02,30,8.10
2011,08,17,02,31,8.10
2011,08,17,02,32,8.00
2011,08,17,02,33,8.00
2011,08,17,02,34,8.00
2011,08,17,02,35,8.00
2011,08,17,02,36,8.00
2011,08,17,02,37,8.00
2011,08,17,02,38,8.00
2011,08,17,02,39,8.00
2011,08,17,02,40,7.90
2011,08,17,02,41,7.90
2011,08,17,02,42,7.90
2011,08,17,02,43,7.90
2011,08,17,02,44,7.90
2011,08,17,02,45,7.90
2011,08,17,02,46,7.90
2011,08,17,02,47,7.90
2011,08,17,02,48,7.90
2011,08,17,02,49,7.90
2011,08,17,02,50,7.90
2011,08,17,02,51,7.90
2011,08,17,02,52,7.90
2011,08,17,02,53,7.90
2011,08,17,02,54,7.80
2011,08,17,02,55,7.80
2011,08,17,02,56,7.80
2011,08,17,02,57,7.80
2011,08,17,02,58,7.80
2011,08,17,02,59,7.80
2011,08,17,03,00,7.80
2011,08,17,03,01,7.70
2011,08,17,03,02,7.70
2011,08,17,03,03,7.70
2011,08,17,03,04,7.70
2011,08,17,03,05,7.70
2011,08,17,03,06,7.60
2011,08,17,03,07,7.60
2011,08,17,03,08,7.60
2011,08,17,03,09,7.60
2011,08,17,03,10,7.60
2011,08,17,03,11,7.50
2011,08,17,03,12,7.50
2011,08,17,03,13,7.50
2011,08,17,03,14,7.40
2011,08,17,03,15,7.40
2011,08,17,03,16,7.40
2011,08,17,03,17,7.40
2011,08,17,03,18,7.40
2011,08,17,03,19,7.40
2011,08,17,03,20,7.30
2011,08,17,03,21,7.30
2011,08,17,03,22,7.30
2011,08,17,03,23,7.30
2011,08,17,03,24,7.30
2011,08,17,03,25,7.30
2011,08,17,03,26,7.30
2011,08,17,03,27,7.30
2011,08,17,03,28,7.30
2011,08,17,03,29,7.30
2011,08,17,03,30,7.30
2011,08,17,03,31,7.30
2011,08,17,03,32,7.20
2011,08,17,03,33,7.20
2011,08,17,03,34,7.20
2011,08,17,03,35,7.20
2011,08,17,03,36,7.20
2011,08,17,03,37,7.20
2011,08,17,03,38,7.20
2011,08,17,03,39,7.20
2011,08,17,03,40,7.20
2011,08,17,03,41,7.20
2011,08,17,03,42,7.10
2011,08,17,03,43,7.10
2011,08,17,03,44,7.10
2011,08,17,03,45,7.10
2011,08,17,03,46,7.10
2011,08,17,03,47,7.10
2011,08,17,03,48,7.10
2011,08,17,03,49,7.10
2011,08,17,03,50,7.00
2011,08,17,03,51,7.00
2011,08,17,03,52,7.00
2011,08,17,03,53,7.00
2011,08,17,03,54,7.00
2011,08,17,03,55,6.90
2011,08,17,03,56,6.90
2011,08,17,03,57,6.90
2011,08,17,03,58,6.90
2011,08,17,03,59,6.90
2011,08,17,04,00,6.90
2011,08,17,04,01,6.90
2011,08,17,04,02,6.90
2011,08,17,04,03,6.80
2011,08,17,04,04,6.80
2011,08,17,04,05,6.80
2011,08,17,04,06,6.80
2011,08,17,04,07,6.80
2011,08,17,04,08,6.80
2011,08,17,04,09,6.80
2011,08,17,04,10,6.80
2011,08,17,04,11,6.80
2011,08,17,04,12,6.70
2011,08,17,04,13,6.70
2011,08,17,04,14,6.70
2011,08,17,04,15,6.70
2011,08,17,04,16,6.70
2011,08,17,04,17,6.70
2011,08,17,04,18,6.70
2011,08,17,04,19,6.70
2011,08,17,04,20,6.70
2011,08,17,04,21,6.70
2011,08,17,04,22,6.60
2011,08,17,04,23,6.60
2011,08,17,04,24,6.60
2011,08,17,04,25,6.60
2011,08,17,04,26,6.60
2011,08,17,04,27,6.60
2011,08,17,04,28,6.60
2011,08,17,04,29,6.60
2011,08,17,04,30,6.60
2011,08,17,04,31,6.60
2011,08,17,04,32,6.60
2011,08,17,04,33,6.60
2011,08,17,04,34,6.60
2011,08,17,04,35,6.60
2011,08,17,04,36,6.60
2011,08,17,04,37,6.60
2011,08,17,04,38,6.60
2011,08,17,04,39,6.60
2011,08,17,04,40,6.60
2011,08,17,04,41,6.60
2011,08,17,04,42,6.60
2011,08,17,04,43,6.60
2011,08,17,04,44,6.60
2011,08,17,04,45,6.60
2011,08,17,04,46,6.60
2011,08,17,04,47,6.60
2011,08,17,04,48,6.60
2011,08,17,04,49,6.60
2011,08,17,04,50,6.60
2011,08,17,04,51,6.60
2011,08,17,04,52,6.60
2011,08,17,04,53,6.60
2011,08,17,04,54,6.60
2011,08,17,04,55,6.60
2011,08,17,04,56,6.50
2011,08,17,04,57,6.50
2011,08,17,04,58,6.50
2011,08,17,04,59,6.50
2011,08,17,05,00,6.40
2011,08,17,05,01,6.40
2011,08,17,05,02,6.40
2011,08,17,05,03,6.40
2011,08,17,05,04,6.40
2011,08,17,05,05,6.40
2011,08,17,05,06,6.40
2011,08,17,05,07,6.40
2011,08,17,05,08,6.40
2011,08,17,05,09,6.40
2011,08,17,05,10,6.40
2011,08,17,05,11,6.40
2011,08,17,05,12,6.40
2011,08,17,05,13,6.30
2011,08,17,05,14,6.30
2011,08,17,05,15,6.30
2011,08,17,05,16,6.30
2011,08,17,05,17,6.30
2011,08,17,05,18,6.30
2011,08,17,05,19,6.30
2011,08,17,05,20,6.30
2011,08,17,05,21,6.30
2011,08,17,05,22,6.30
2011,08,17,05,23,6.30
2011,08,17,05,24,6.30
2011,08,17,05,25,6.30
2011,08,17,05,26,6.30
2011,08,17,05,27,6.30
2011,08,17,05,28,6.20
2011,08,17,05,29,6.20
2011,08,17,05,30,6.20
2011,08,17,05,31,6.20
2011,08,17,05,32,6.20
2011,08,17,05,33,6.20
2011,08,17,05,34,6.20
2011,08,17,05,35,6.20
2011,08,17,05,36,6.20
2011,08,17,05,37,6.20
2011,08,17,05,38,6.20
2011,08,17,05,39,6.20
2011,08,17,05,40,6.10
2011,08,17,05,41,6.10
2011,08,17,05,42,6.10
2011,08,17,05,43,6.10
2011,08,17,05,44,6.10
2011,08,17,05,45,6.10
2011,08,17,05,46,6.10
2011,08,17,05,47,6.10
2011,08,17,05,48,6.10
2011,08,17,05,49,6.10
2011,08,17,05,50,6.10
2011,08,17,05,51,6.10
2011,08,17,05,52,6.00
2011,08,17,05,53,6.00
2011,08,17,05,54,6.00
2011,08,17,05,55,6.00
2011,08,17,05,56,5.90
2011,08,17,05,57,5.90
2011,08,17,05,58,5.90
2011,08,17,05,59,5.90
2011,08,17,06,00,5.90
2011,08,17,06,01,5.90
2011,08,17,06,02,5.90
2011,08,17,06,03,5.90
2011,08,17,06,04,5.90
2011,08,17,06,05,5.90
2011,08,17,06,06,5.90
2011,08,17,06,07,5.90
2011,08,17,06,08,5.90
2011,08,17,06,09,5.90
2011,08,17,06,10,5.90
2011,08,17,06,11,5.90
2011,08,17,06,12,5.90
2011,08,17,06,13,5.90
2011,08,17,06,14,5.90
2011,08,17,06,15,5.90
2011,08,17,06,16,5.90
2011,08,17,06,17,5.80
2011,08,17,06,18,5.80
2011,08,17,06,19,5.80
2011,08,17,06,20,5.80
2011,08,17,06,21,5.80
2011,08,17,06,22,5.80
2011,08,17,06,23,5.80
2011,08,17,06,24,5.80
2011,08,17,06,25,5.80
2011,08,17,06,26,5.80
2011,08,17,06,27,5.80
2011,08,17,06,28,5.80
2011,08,17,06,29,5.80
2011,08,17,06,30,5.80
2011,08,17,06,31,5.80
2011,08,17,06,32,5.80
2011,08,17,06,33,5.80
2011,08,17,06,34,5.80
2011,08,17,06,35,5.80
2011,08,17,06,36,5.80
2011,08,17,06,37,5.80
2011,08,17,06,38,5.80
2011,08,17,06,39,5.80
2011,08,17,06,40,5.80
2011,08,17,06,41,5.80
2011,08,17,06,42,5.80
2011,08,17,06,43,5.80
2011,08,17,06,44,5.80
2011,08,17,06,45,5.80
2011,08,17,06,46,5.90
2011,08,17,06,47,5.90
2011,08,17,06,48,5.90
2011,08,17,06,49,5.90
2011,08,17,06,50,5.90
2011,08,17,06,51,5.90
2011,08,17,06,52,5.90
2011,08,17,06,53,5.90
2011,08,17,06,54,5.90
2011,08,17,06,55,5.90
2011,08,17,06,56,5.90
2011,08,17,06,57,5.90
2011,08,17,06,58,6.00
2011,08,17,06,59,6.00
2011,08,17,07,00,6.00
2011,08,17,07,01,6.10
2011,08,17,07,02,6.10
2011,08,17,07,03,6.10
2011,08,17,07,04,6.10
2011,08,17,07,05,6.10
2011,08,17,07,06,6.10
2011,08,17,07,07,6.10
2011,08,17,07,08,6.10
2011,08,17,07,09,6.10
2011,08,17,07,10,6.10
2011,08,17,07,11,6.10
2011,08,17,07,12,6.10
2011,08,17,07,13,6.20
2011,08,17,07,14,6.20
2011,08,17,07,15,6.20
2011,08,17,07,16,6.20
2011,08,17,07,17,6.20
2011,08,17,07,18,6.20
2011,08,17,07,19,6.20
2011,08,17,07,20,6.20
2011,08,17,07,21,6.20
2011,08,17,07,22,6.30
2011,08,17,07,23,6.30
2011,08,17,07,24,6.30
2011,08,17,07,25,6.30
2011,08,17,07,26,6.30
2011,08,17,07,27,6.30
2011,08,17,07,28,6.30
2011,08,17,07,29,6.30
2011,08,17,07,30,6.30
2011,08,17,07,31,6.40
2011,08,17,07,32,6.40
2011,08,17,07,33,6.40
2011,08,17,07,34,6.40
2011,08,17,07,35,6.40
2011,08,17,07,36,6.50
2011,08,17,07,37,6.50
2011,08,17,07,38,6.60
2011,08,17,07,39,6.60
2011,08,17,07,40,6.60
2011,08,17,07,41,6.60
2011,08,17,07,42,6.70
2011,08,17,07,43,6.70
2011,08,17,07,44,6.70
2011,08,17,07,45,6.80
2011,08,17,07,46,6.80
2011,08,17,07,47,6.80
2011,08,17,07,48,6.80
2011,08,17,07,49,6.90
2011,08,17,07,50,7.00
2011,08,17,07,51,7.00
2011,08,17,07,52,7.10
2011,08,17,07,53,7.20
2011,08,17,07,54,7.20
2011,08,17,07,55,7.30
2011,08,17,07,56,7.40
2011,08,17,07,57,7.50
2011,08,17,07,58,7.60
2011,08,17,07,59,7.70
2011,08,17,08,00,7.80
2011,08,17,08,01,7.90
2011,08,17,08,02,8.00
2011,08,17,08,03,8.10
2011,08,17,08,04,8.20
2011,08,17,08,05,8.20
2011,08,17,08,06,8.30
2011,08,17,08,07,8.30
2011,08,17,08,08,8.40
2011,08,17,08,09,8.40
2011,08,17,08,10,8.50
2011,08,17,08,11,8.60
2011,08,17,08,12,8.70
2011,08,17,08,13,8.70
2011,08,17,08,14,8.80
2011,08,17,08,15,8.90
2011,08,17,08,16,8.90
2011,08,17,08,17,8.90
2011,08,17,08,18,9.00
2011,08,17,08,19,9.00
2011,08,17,08,20,9.00
2011,08,17,08,21,9.10
2011,08,17,08,22,9.10
2011,08,17,08,23,9.20
2011,08,17,08,24,9.20
2011,08,17,08,25,9.30
2011,08,17,08,26,9.40
2011,08,17,08,27,9.50
2011,08,17,08,28,9.50
2011,08,17,08,29,9.60
2011,08,17,08,30,9.60
2011,08,17,08,31,9.70
2011,08,17,08,32,9.70
2011,08,17,08,33,9.80
2011,08,17,08,34,9.90
2011,08,17,08,35,10.00
2011,08,17,08,36,10.00
2011,08,17,08,37,10.10
2011,08,17,08,38,10.10
2011,08,17,08,39,10.10
2011,08,17,08,40,10.10
2011,08,17,08,41,10.10
2011,08,17,08,42,10.10
2011,08,17,08,43,10.20
2011,08,17,08,44,10.20
2011,08,17,08,45,10.30
2011,08,17,08,46,10.40
2011,08,17,08,47,10.40
2011,08,17,08,48,10.50
2011,08,17,08,49,10.60
2011,08,17,08,50,10.60
2011,08,17,08,51,10.70
2011,08,17,08,52,10.80
2011,08,17,08,53,10.80
2011,08,17,08,54,10.80
2011,08,17,08,55,10.80
2011,08,17,08,56,10.90
2011,08,17,08,57,10.90
2011,08,17,08,58,10.90
2011,08,17,08,59,10.90
2011,08,17,09,00,11.00
2011,08,17,09,01,11.00
2011,08,17,09,02,11.10
2011,08,17,09,03,11.10
2011,08,17,09,04,11.10
2011,08,17,09,05,11.10
2011,08,17,09,06,11.10
2011,08,17,09,07,11.20
2011,08,17,09,08,11.20
2011,08,17,09,09,11.20
2011,08,17,09,10,11.20
2011,08,17,09,11,11.30
2011,08,17,09,12,11.30
2011,08,17,09,13,11.40
2011,08,17,09,14,11.50
2011,08,17,09,15,11.60
2011,08,17,09,16,11.70
2011,08,17,09,17,11.80
2011,08,17,09,18,11.80
2011,08,17,09,19,11.90
2011,08,17,09,20,12.00
2011,08,17,09,21,12.10
2011,08,17,09,22,12.10
2011,08,17,09,23,12.20
2011,08,17,09,24,12.30
2011,08,17,09,25,12.40
2011,08,17,09,26,12.50
2011,08,17,09,27,12.60
2011,08,17,09,28,12.70
2011,08,17,09,29,12.70
2011,08,17,09,30,12.70
2011,08,17,09,31,12.70
2011,08,17,09,32,12.80
2011,08,17,09,33,12.80
2011,08,17,09,34,12.80
2011,08,17,09,35,12.80
2011,08,17,09,36,12.80
2011,08,17,09,37,12.80
2011,08,17,09,38,12.80
2011,08,17,09,39,12.80
2011,08,17,09,40,12.80
2011,08,17,09,41,12.80
2011,08,17,09,42,12.80
2011,08,17,09,43,12.80
2011,08,17,09,44,12.70
2011,08,17,09,45,12.70
2011,08,17,09,46,12.70
2011,08,17,09,47,12.70
2011,08,17,09,48,12.70
2011,08,17,09,49,12.70
2011,08,17,09,50,12.70
2011,08,17,09,51,12.70
2011,08,17,09,52,12.70
2011,08,17,09,53,12.70
2011,08,17,09,54,12.70
2011,08,17,09,55,12.80
2011,08,17,09,56,12.80
2011,08,17,09,57,12.80
2011,08,17,09,58,12.90
2011,08,17,09,59,12.90
2011,08,17,10,00,12.90
2011,08,17,10,01,13.00
2011,08,17,10,02,13.10
2011,08,17,10,03,13.10
2011,08,17,10,04,13.10
2011,08,17,10,05,13.20
2011,08,17,10,06,13.20
2011,08,17,10,07,13.30
2011,08,17,10,08,13.30
2011,08,17,10,09,13.30
2011,08,17,10,10,13.30
2011,08,17,10,11,13.30
2011,08,17,10,12,13.40
2011,08,17,10,13,13.40
2011,08,17,10,14,13.40
2011,08,17,10,15,13.40
2011,08,17,10,16,13.40
2011,08,17,10,17,13.40
2011,08,17,10,18,13.40
2011,08,17,10,19,13.40
2011,08,17,10,20,13.40
2011,08,17,10,21,13.30
2011,08,17,10,22,13.30
2011,08,17,10,23,13.30
2011,08,17,10,24,13.30
2011,08,17,10,25,13.30
2011,08,17,10,26,13.30
2011,08,17,10,27,13.30
2011,08,17,10,28,13.30
2011,08,17,10,29,13.30
2011,08,17,10,30,13.40
2011,08,17,10,31,13.40
2011,08,17,10,32,13.50
2011,08,17,10,33,13.50
2011,08,17,10,34,13.50
2011,08,17,10,35,13.40
2011,08,17,10,36,13.40
2011,08,17,10,37,13.40
2011,08,17,10,38,13.40
2011,08,17,10,39,13.40
2011,08,17,10,40,13.50
2011,08,17,10,41,13.50
2011,08,17,10,42,13.50
2011,08,17,10,43,13.50
2011,08,17,10,44,13.50
2011,08,17,10,45,13.50
2011,08,17,10,46,13.60
2011,08,17,10,47,13.70
2011,08,17,10,48,13.70
2011,08,17,10,49,13.80
2011,08,17,10,50,13.80
2011,08,17,10,51,13.80
2011,08,17,10,52,13.80
2011,08,17,10,53,13.90
2011,08,17,10,54,13.90
2011,08,17,10,55,14.00
2011,08,17,10,56,14.00
2011,08,17,10,57,14.10
2011,08,17,10,58,14.20
2011,08,17,10,59,14.30
2011,08,17,11,00,14.30
2011,08,17,11,01,14.40
2011,08,17,11,02,14.50
2011,08,17,11,03,14.50
2011,08,17,11,04,14.50
2011,08,17,11,05,14.40
2011,08,17,11,06,14.40
2011,08,17,11,07,14.40
2011,08,17,11,08,14.40
2011,08,17,11,09,14.30
2011,08,17,11,10,14.30
2011,08,17,11,11,14.30
2011,08,17,11,12,14.20
2011,08,17,11,13,14.20
2011,08,17,11,14,14.20
2011,08,17,11,15,14.20
2011,08,17,11,16,14.20
2011,08,17,11,17,14.30
2011,08,17,11,18,14.30
2011,08,17,11,19,14.30
2011,08,17,11,20,14.40
2011,08,17,11,21,14.40
2011,08,17,11,22,14.40
2011,08,17,11,23,14.40
2011,08,17,11,24,14.40
2011,08,17,11,25,14.30
2011,08,17,11,26,14.30
2011,08,17,11,27,14.30
2011,08,17,11,28,14.30
2011,08,17,11,29,14.30
2011,08,17,11,30,14.40
2011,08,17,11,31,14.50
2011,08,17,11,32,14.60
2011,08,17,11,33,14.70
2011,08,17,11,34,14.70
2011,08,17,11,35,14.70
2011,08,17,11,36,14.70
2011,08,17,11,37,14.60
2011,08,17,11,38,14.60
2011,08,17,11,39,14.70
2011,08,17,11,40,14.70
2011,08,17,11,41,14.70
2011,08,17,11,42,14.70
2011,08,17,11,43,14.70
2011,08,17,11,44,14.70
2011,08,17,11,45,14.80
2011,08,17,11,46,14.80
2011,08,17,11,47,14.90
2011,08,17,11,48,15.00
2011,08,17,11,49,15.00
2011,08,17,11,50,15.00
2011,08,17,11,51,15.00
2011,08,17,11,52,14.90
2011,08,17,11,53,15.00
2011,08,17,11,54,14.90
2011,08,17,11,55,14.90
2011,08,17,11,56,14.90
2011,08,17,11,57,14.90
2011,08,17,11,58,14.90
2011,08,17,11,59,14.80
2011,08,17,12,00,14.80
2011,08,17,12,01,14.80
2011,08,17,12,02,14.80
2011,08,17,12,03,14.80
2011,08,17,12,04,14.80
2011,08,17,12,05,14.90
2011,08,17,12,06,14.80
2011,08,17,12,07,14.90
2011,08,17,12,08,14.90
2011,08,17,12,09,14.90
2011,08,17,12,10,14.90
2011,08,17,12,11,14.90
2011,08,17,12,12,14.80
2011,08,17,12,13,14.80
2011,08,17,12,14,14.80
2011,08,17,12,15,14.80
2011,08,17,12,16,14.90
2011,08,17,12,17,14.90
2011,08,17,12,18,14.90
2011,08,17,12,19,14.80
2011,08,17,12,20,14.80
2011,08,17,12,21,14.80
2011,08,17,12,22,14.70
2011,08,17,12,23,14.70
2011,08,17,12,24,14.70
2011,08,17,12,25,14.70
2011,08,17,12,26,14.70
2011,08,17,12,27,14.60
2011,08,17,12,28,14.60
2011,08,17,12,29,14.70
2011,08,17,12,30,14.60
2011,08,17,12,31,14.60
2011,08,17,12,32,14.60
2011,08,17,12,33,14.60
2011,08,17,12,34,14.60
2011,08,17,12,35,14.60
2011,08,17,12,36,14.60
2011,08,17,12,37,14.60
2011,08,17,12,38,14.60
2011,08,17,12,39,14.60
2011,08,17,12,40,14.50
2011,08,17,12,41,14.60
2011,08,17,12,42,14.60
2011,08,17,12,43,14.60
2011,08,17,12,44,14.60
2011,08,17,12,45,14.60
2011,08,17,12,46,14.70
2011,08,17,12,47,14.70
2011,08,17,12,48,14.80
2011,08,17,12,49,14.90
2011,08,17,12,50,15.00
2011,08,17,12,51,15.00
2011,08,17,12,52,15.10
2011,08,17,12,53,15.00
2011,08,17,12,54,15.00
2011,08,17,12,55,15.10
2011,08,17,12,56,15.10
2011,08,17,12,57,15.20
2011,08,17,12,58,15.20
2011,08,17,12,59,15.20
2011,08,17,13,00,15.20
2011,08,17,13,01,15.20
2011,08,17,13,02,15.20
2011,08,17,13,03,15.20
2011,08,17,13,04,15.20
2011,08,17,13,05,15.20
2011,08,17,13,06,15.30
2011,08,17,13,07,15.40
2011,08,17,13,08,15.40
2011,08,17,13,09,15.30
2011,08,17,13,10,15.40
2011,08,17,13,11,15.40
2011,08,17,13,12,15.40
2011,08,17,13,13,15.50
2011,08,17,13,14,15.50
2011,08,17,13,15,15.40
2011,08,17,13,16,15.50
2011,08,17,13,17,15.50
2011,08,17,13,18,15.50
2011,08,17,13,19,15.50
2011,08,17,13,20,15.50
2011,08,17,13,21,15.50
2011,08,17,13,22,15.40
2011,08,17,13,23,15.40
2011,08,17,13,24,15.30
2011,08,17,13,25,15.30
2011,08,17,13,26,15.20
2011,08,17,13,27,15.20
2011,08,17,13,28,15.20
2011,08,17,13,29,15.20
2011,08,17,13,30,15.20
2011,08,17,13,31,15.20
2011,08,17,13,32,15.20
2011,08,17,13,33,15.20
2011,08,17,13,34,15.20
2011,08,17,13,35,15.20
2011,08,17,13,36,15.20
2011,08,17,13,37,15.20
2011,08,17,13,38,15.30
2011,08,17,13,39,15.40
2011,08,17,13,40,15.40
2011,08,17,13,41,15.50
2011,08,17,13,42,15.50
2011,08,17,13,43,15.40
2011,08,17,13,44,15.30
2011,08,17,13,45,15.30
2011,08,17,13,46,15.20
2011,08,17,13,47,15.20
2011,08,17,13,48,15.20
2011,08,17,13,49,15.30
2011,08,17,13,50,15.30
2011,08,17,13,51,15.30
2011,08,17,13,52,15.30
2011,08,17,13,53,15.40
2011,08,17,13,54,15.40
2011,08,17,13,55,15.40
2011,08,17,13,56,15.40
2011,08,17,13,57,15.30
2011,08,17,13,58,15.30
2011,08,17,13,59,15.20
2011,08,17,14,00,15.20
2011,08,17,14,01,15.20
2011,08,17,14,02,15.30
2011,08,17,14,03,15.30
2011,08,17,14,04,15.30
2011,08,17,14,05,15.30
2011,08,17,14,06,15.30
2011,08,17,14,07,15.30
2011,08,17,14,08,15.30
2011,08,17,14,09,15.30
2011,08,17,14,10,15.30
2011,08,17,14,11,15.30
2011,08,17,14,12,15.30
2011,08,17,14,13,15.30
2011,08,17,14,14,15.30
2011,08,17,14,15,15.30
2011,08,17,14,16,15.20
2011,08,17,14,17,15.20
2011,08,17,14,18,15.10
2011,08,17,14,19,15.10
2011,08,17,14,20,15.00
2011,08,17,14,21,15.00
2011,08,17,14,22,14.90
2011,08,17,14,23,14.90
2011,08,17,14,24,14.90
2011,08,17,14,25,14.90
2011,08,17,14,26,14.90
2011,08,17,14,27,14.90
2011,08,17,14,28,14.90
2011,08,17,14,29,14.90
2011,08,17,14,30,14.80
2011,08,17,14,31,14.80
2011,08,17,14,32,14.80
2011,08,17,14,33,14.80
2011,08,17,14,34,14.80
2011,08,17,14,35,14.80
2011,08,17,14,36,14.80
2011,08,17,14,37,14.80
2011,08,17,14,38,14.80
2011,08,17,14,39,14.80
2011,08,17,14,40,14.80
2011,08,17,14,41,14.80
2011,08,17,14,42,14.80
2011,08,17,14,43,14.80
2011,08,17,14,44,14.90
2011,08,17,14,45,14.80
2011,08,17,14,46,14.80
2011,08,17,14,47,14.80
2011,08,17,14,48,14.90
2011,08,17,14,49,14.90
2011,08,17,14,50,14.90
2011,08,17,14,51,14.90
2011,08,17,14,52,14.90
2011,08,17,14,53,14.90
2011,08,17,14,54,14.90
2011,08,17,14,55,14.90
2011,08,17,14,56,14.90
2011,08,17,14,57,14.90
2011,08,17,14,58,14.90
2011,08,17,14,59,14.90
2011,08,17,15,00,14.90
2011,08,17,15,01,14.90
2011,08,17,15,02,14.90
2011,08,17,15,03,14.90
2011,08,17,15,04,14.90
2011,08,17,15,05,14.90
2011,08,17,15,06,14.90
2011,08,17,15,07,15.00
2011,08,17,15,08,15.00
2011,08,17,15,09,15.10
2011,08,17,15,10,15.10
2011,08,17,15,11,15.20
2011,08,17,15,12,15.20
2011,08,17,15,13,15.20
2011,08,17,15,14,15.20
2011,08,17,15,15,15.30
2011,08,17,15,16,15.40
2011,08,17,15,17,15.40
2011,08,17,15,18,15.50
2011,08,17,15,19,15.50
2011,08,17,15,20,15.60
2011,08,17,15,21,15.70
2011,08,17,15,22,15.80
2011,08,17,15,23,15.80
2011,08,17,15,24,15.80
2011,08,17,15,25,15.70
2011,08,17,15,26,15.70
2011,08,17,15,27,15.60
2011,08,17,15,28,15.60
2011,08,17,15,29,15.60
2011,08,17,15,30,15.60
2011,08,17,15,31,15.60
2011,08,17,15,32,15.70
2011,08,17,15,33,15.70
2011,08,17,15,34,15.70
2011,08,17,15,35,15.80
2011,08,17,15,36,15.80
2011,08,17,15,37,15.80
2011,08,17,15,38,15.90
2011,08,17,15,39,16.00
2011,08,17,15,40,16.10
2011,08,17,15,41,16.10
2011,08,17,15,42,16.10
2011,08,17,15,43,16.10
2011,08,17,15,44,16.10
2011,08,17,15,45,16.20
2011,08,17,15,46,16.20
2011,08,17,15,47,16.20
2011,08,17,15,48,16.20
2011,08,17,15,49,16.20
2011,08,17,15,50,16.20
2011,08,17,15,51,16.20
2011,08,17,15,52,16.30
2011,08,17,15,53,16.30
2011,08,17,15,54,16.30
2011,08,17,15,55,16.40
2011,08,17,15,56,16.40
2011,08,17,15,57,16.40
2011,08,17,15,58,16.50
2011,08,17,15,59,16.50
2011,08,17,16,00,16.50
2011,08,17,16,01,16.50
2011,08,17,16,02,16.60
2011,08,17,16,03,16.60
2011,08,17,16,04,16.60
2011,08,17,16,05,16.60
2011,08,17,16,06,16.70
2011,08,17,16,07,16.60
2011,08,17,16,08,16.50
2011,08,17,16,09,16.40
2011,08,17,16,10,16.40
2011,08,17,16,11,16.40
2011,08,17,16,12,16.30
2011,08,17,16,13,16.20
2011,08,17,16,14,16.20
2011,08,17,16,15,16.20
2011,08,17,16,16,16.20
2011,08,17,16,17,16.10
2011,08,17,16,18,16.10
2011,08,17,16,19,16.00
2011,08,17,16,20,16.00
2011,08,17,16,21,15.90
2011,08,17,16,22,15.90
2011,08,17,16,23,15.80
2011,08,17,16,24,15.70
2011,08,17,16,25,15.70
2011,08,17,16,26,15.70
2011,08,17,16,27,15.70
2011,08,17,16,28,15.60
2011,08,17,16,29,15.60
2011,08,17,16,30,15.60
2011,08,17,16,31,15.60
2011,08,17,16,32,15.60
2011,08,17,16,33,15.70
2011,08,17,16,34,15.70
2011,08,17,16,35,15.60
2011,08,17,16,36,15.60
2011,08,17,16,37,15.60
2011,08,17,16,38,15.60
2011,08,17,16,39,15.60
2011,08,17,16,40,15.60
2011,08,17,16,41,15.70
2011,08,17,16,42,15.70
2011,08,17,16,43,15.70
2011,08,17,16,44,15.70
2011,08,17,16,45,15.70
2011,08,17,16,46,15.70
2011,08,17,16,47,15.70
2011,08,17,16,48,15.80
2011,08,17,16,49,15.80
2011,08,17,16,50,15.80
2011,08,17,16,51,15.90
2011,08,17,16,52,15.90
2011,08,17,16,53,15.90
2011,08,17,16,54,16.00
2011,08,17,16,55,16.00
2011,08,17,16,56,16.00
2011,08,17,16,57,15.90
2011,08,17,16,58,15.90
2011,08,17,16,59,15.90
2011,08,17,17,00,15.90
2011,08,17,17,01,15.90
2011,08,17,17,02,15.90
2011,08,17,17,03,15.90
2011,08,17,17,04,15.90
2011,08,17,17,05,15.90
2011,08,17,17,06,16.00
2011,08,17,17,07,16.00
2011,08,17,17,08,16.10
2011,08,17,17,09,16.10
2011,08,17,17,10,16.20
2011,08,17,17,11,16.20
2011,08,17,17,12,16.30
2011,08,17,17,13,16.30
2011,08,17,17,14,16.40
2011,08,17,17,15,16.40
2011,08,17,17,16,16.30
2011,08,17,17,17,16.30
2011,08,17,17,18,16.20
2011,08,17,17,19,16.20
2011,08,17,17,20,16.20
2011,08,17,17,21,16.10
2011,08,17,17,22,16.10
2011,08,17,17,23,16.00
2011,08,17,17,24,15.90
2011,08,17,17,25,15.90
2011,08,17,17,26,15.80
2011,08,17,17,27,15.80
2011,08,17,17,28,15.80
2011,08,17,17,29,15.70
2011,08,17,17,30,15.60
2011,08,17,17,31,15.60
2011,08,17,17,32,15.60
2011,08,17,17,33,15.60
2011,08,17,17,34,15.60
2011,08,17,17,35,15.60
2011,08,17,17,36,15.60
2011,08,17,17,37,15.60
2011,08,17,17,38,15.60
2011,08,17,17,39,15.70
2011,08,17,17,40,15.70
2011,08,17,17,41,15.70
2011,08,17,17,42,15.80
2011,08,17,17,43,15.80